Погода в Ушбулаке

Казахстан     41°54′29″N   69°33′55″E
темп.,
°C
ветер,
м/с
пор.,
м/с
влажн.,
%
обл.,
%
осадки,
мм/ч
давл.,
гПа
погр.,
м
25 февраля, чт
чт2500:00−8зюз5889100 4.8 1030461
03:00−13ююз41079100 0.1 1033283
06:00−16ю447168 0.1 103683
09:00−17ю34750 0.0 103987
12:00−11ююз58720 0.0 1038432
15:00−10ююз68690 0.0 10391072
18:00−11ю47740 0.0 1039145
21:00−15ююв23640 0.0 104121
26 февраля, пт
пт2600:00−16юв22640 0.0 104120
03:00−16юв22600 0.0 104120
06:00−16вюв225930 0.0 104020
09:00−15вюв225932 0.0 103920
12:00−9в006066 0.0 1037128
15:00−8с116156 0.0 1034240
18:00−9св238166 0.0 103340
21:00−10св2374100 0.0 103322
27 февраля, сб
сб2700:00−9в1164100 0.0 103121
03:00−9юв1162100 0.0 103021
06:00−8юв1164100 0.0 103021
09:00−7ююз1168100 0.0 103021
12:00−4юз1264100 0.0 1031238
15:00−3юз357477 0.0 1030411
18:00−4ююз238339 0.0 103141
21:00−8юв22740 0.0 103221
28 февраля, вс
вс2800:00−7юв33670 0.0 103121
03:00−7вюв23621 0.0 102921
06:00−7вюв225724 0.0 102821
09:00−6в23580 0.0 102721
12:000всв22790 0.0 102550
15:00+1св22890 0.0 102225
18:000всв23660 0.0 102122
21:00−3юв22590 0.0 102221
1 марта, пн
пн100:00−2юв22510 0.0 102221
03:00−2вюв22490 0.0 102121
06:00−1вюв224716 0.0 102122
09:000вюв225135 0.0 102122
12:00+3вюв119218 0.0 102023
15:00+4ююз11960 0.0 101926
18:00+3юв11560 0.0 101922
21:00+2юв22470 0.0 102122